Preview of NWS' New Version of Forecast
This preview is not operational and should not be used for support decisions.
Latest weather observations around

Homer, Homer Airport (PAHO)

Using English Units (Switch to International System of Units)
Date/ Time (AKDT) Wind (mph) Vis. (mi) Weather Sky Cond. Temp (°F) Rel. Humidity Wind Chill (°F) Heat Index (°F) Pressure Precip. (in)
Air Dwpt 6 hour Altimeter (inHg) Sea level (inHg) 1 hr 3 hr 6 hr
Max Min
Aug 21 11:53 E 5 2 Smoke OVC021 53 47     80%     29.75 29.75      
Aug 21 11:25 ESE 5 2 Smoke OVC020 52 47     83%     29.75        
Aug 21 10:53 ESE 6 3 Fog/Mist OVC020 51 47     86%     29.75 29.75      
Aug 21 09:53 ENE 3 6 Fog/Mist BKN021 50 46     86%     29.75 29.75      
Aug 21 08:53 ENE 6 6 Fog/Mist SCT003 OVC010 47 46     97% 44   29.75 29.75      
Aug 21 07:53 NE 5 8 Cloudy OVC010 48 46     93% 46   29.75 29.75      
Aug 21 06:53 NE 3 9 Cloudy OVC010 48 47     96% 47   29.75 29.75      
Aug 21 05:53 NE 3 10 Cloudy OVC010 46 45     96% 45   29.75 29.75      
Aug 21 05:48 ENE 5 10 Cloudy OVC009 46 45     93% 44   29.75        
Aug 21 04:53 Calm 9 Cloudy OVC011 43 41     93%     29.76 29.76      
Aug 21 03:53 Calm 10 Cloudy OVC011 44 42     93%     29.77 29.77      
Aug 21 03:13 Calm 10 Mostly Cloudy BKN011 44 43     96%     29.77        
Aug 21 02:53 Calm 10 Mostly Clear FEW011 43 41     93%     29.77 29.77      
Aug 21 02:49 Calm 10 Partly Cloudy SCT011 45 43     93%     29.77        
Aug 21 02:13 NE 3 10 Mostly Cloudy BKN011 45 43     93% 44   29.77        
Aug 21 01:53 Calm 10 Clear CLR 44 42     93%     29.77 29.77      
Aug 21 00:53 Calm 10 Clear CLR 45 42     90%     29.76 29.76      
Aug 20 23:53 Calm 10 Clear CLR 49 44     83%     29.76 29.76      
Aug 20 22:53 W 7 10 Clear CLR 50 44     80%     29.77 29.77      
Aug 20 21:53 WSW 8 10 Cloudy OVC110 53 45     74%     29.77 29.77      
Aug 20 20:53 WSW 9 10 Cloudy OVC110 54 45     72%     29.77 29.77      
Aug 20 19:53 WSW 9 10 Mostly Cloudy SCT050 BKN120 55 45     69%     29.77 29.77      
Aug 20 18:53 W 8 10 Mostly Cloudy BKN110 58 44     60%     29.77 29.77      
Aug 20 17:53 W 9 10 Clear CLR 58 44     60%     29.77 29.77      
Aug 20 16:53 W 11 10 Clear CLR 57 44     62%     29.78 29.78      
Aug 20 15:53 W 9 10 Clear CLR 57 46     67%     29.78 29.78      
Aug 20 14:53 W 10 10 Clear CLR 55 47     74%     29.8 29.8      
Aug 20 13:53 W 13 10 Clear CLR 56 47     72%     29.8 29.8      
Aug 20 12:53 W 13 10 Clear CLR 58 44     60%     29.8 29.8      
Aug 20 11:53 ENE 3 10 Clear CLR 58 38     47%     29.8 29.8      
Aug 20 10:53 E 5 10 Mostly Clear FEW085 57 41     55%     29.81 29.81      
Aug 20 09:53 NE 5 10 Cloudy OVC085 54 42     64%     29.81 29.81      
Aug 20 08:53 NE 3 10 Mostly Clear FEW080 50 43     77%     29.82 29.82      
Aug 20 07:53 NE 3 10 Mostly Clear FEW120 48 42     80% 47   29.83 29.83      
Aug 20 06:53 NE 3 10 Clear CLR 46 40     79% 45   29.83 29.83      
Aug 20 05:53 Calm 10 Mostly Clear FEW120 48 41     77%     29.83 29.83      
Aug 20 04:53 Calm 10 Mostly Clear FEW120 46 40     79%     29.84 29.84      
Aug 20 03:53 Calm 10 Clear CLR 49 41     74%     29.85 29.85      
Aug 20 02:53 Calm 10 Mostly Cloudy BKN085 50 43     77%     29.86 29.86      
Aug 20 01:53 Calm 10 Mostly Cloudy BKN075 51 42     71%     29.86 29.86      
Aug 20 00:53 Calm 10 Cloudy OVC075 50 41     71%     29.86 29.86      
Aug 19 23:53 NE 5 10 Clear CLR 51 42     71%     29.87 29.87      
Aug 19 22:53 Calm 10 Clear CLR 52 42     69%     29.88 29.88      
Aug 19 21:53 Calm 10 Clear   54 43     66%     29.87 29.87      
Aug 19 20:53 WSW 3 10 Clear CLR 56 40     55%     29.87 29.87      
Aug 19 19:53 W 6 10 Clear CLR 60 39     46%     29.87 29.87      
Aug 19 18:53 WSW 8 10 Clear CLR 58 38     47%     29.88 29.88      
Aug 19 17:53 W 10 10 Clear CLR 62 37     39%     29.89 29.89      
Aug 19 16:53 W 11 10 Clear CLR 62 41     46%     29.89 29.89      
Aug 19 15:53 SSW 11 10 Clear CLR 60 47     62%     29.9 29.9      
Aug 19 14:53 SSW 9 10 Clear CLR 62 45     53%     29.91 29.91      
Aug 19 13:53 WSW 7 10 Clear CLR 62 37     39%     29.92 29.92      
Aug 19 12:53 SSW 5 10 Clear CLR 61 41     48%     29.94 29.93      
Aug 19 11:53 ESE 8 10 Clear CLR 57 39     51%     29.94 29.94      
Aug 19 10:53 E 8 10 Clear CLR 55 40     57%     29.95 29.95      
Aug 19 09:53 ENE 7 10 Clear CLR 54 39     57%     29.96 29.96      
Aug 19 08:53 Calm 10 Clear CLR 50 40     68%     29.96 29.96      
Aug 19 07:53 ENE 3 10 Clear CLR 44 38     79% 43   29.97 29.97      
Aug 19 06:53 Calm 10 Clear CLR 40 35     83%     29.97 29.97      
Aug 19 05:53 NNE 5 10 Clear CLR 42 37     82% 39   29.97 29.97      
Aug 19 04:53 NNE 3 10 Clear CLR 44 38     79% 43   29.97 29.97      
Aug 19 03:53 Calm 10 Clear CLR 43 37     79%     29.97 29.97      
Aug 19 02:53 NNE 5 10 Clear CLR 44 35     70% 41   29.97 29.97      
Aug 19 01:53 Calm 10 Clear CLR 50 39     66%     29.98 29.98      
Aug 19 00:53 Calm 10 Clear CLR 47 36     65%     29.97 29.97      
Aug 18 23:53 Calm 10 Cloudy OVC075 53 35     50%     29.97 29.97      
Aug 18 22:53 Calm 10 Cloudy OVC080 55 36     48%     29.97 29.97      
Aug 18 21:53 Calm 10 Cloudy OVC080 59 40     49%     29.97 29.96      
Aug 18 20:53 ESE 3 10 Cloudy OVC075 62 36     38%     29.96 29.96      
Aug 18 19:53 N 9 10 Cloudy OVC070 64 36     35%     29.96 29.96      
Aug 18 18:53 NNE 10 10 Partly Cloudy SCT060 64 36     35%     29.97 29.97      
Aug 18 17:53 NNE 14 10 Clear CLR 65 35     33%     29.97 29.97      
Aug 18 16:53 ENE 11 10 Mostly Clear FEW080 65 34     32%     29.98 29.98      
Aug 18 15:53 NNE 16 10 Mostly Clear FEW075 65 35     33%     29.98 29.98      
Aug 18 14:53 NE 17 10 Mostly Clear FEW080 68 34     28%     29.99 29.99      
Aug 18 13:53 NNE 14 10 Clear CLR 67 34     29%     30 30      
Aug 18 12:53 NE 15 10 Clear CLR 65 33     30%     30.02 30.02      
May 14 16:53 W 13 10 Clear   47 31     53% 41   29.94 29.94      
May 14 07:53 SW 14 10 Clear CLR 43 37     79% 36   29.86 29.86      
May 12 05:53 3 10 Partly Cloudy SCT039 43 34     70% 41   30.11 30.11      
May 12 04:53 Calm 10 Mostly Cloudy FEW036 BKN110 43 34     70%     30.11 30.11      
Notice The following observation data may not be complete
Jun 10 11:53 ESE 9 10 Mostly Cloudy BKN055   41      %     29.8 29.8      
Notice The following observation data may not be complete
Jun 10 08:53 NW 5 10 Cloudy BKN050 OVC070   43      %     29.78 29.78      
Jun 10 04:53 Calm 10 Cloudy OVC110 53 42     66%     29.75 29.75      
Jun 09 01:53 Calm 10 Cloudy OVC050 53 47     80%     29.69 29.69      
Jun 08 17:53 SW 8 10 Cloudy FEW041 OVC055 55 47     74%     29.66 29.66      
Jun 08 10:53 5 10 Mostly Cloudy BKN017 55 46     72%     29.68 29.68      
Jun 08 07:53 ENE 6 10 Cloudy SCT007 OVC110 51 45     79%     29.7 29.7 0